Data supplied by UK-AIR on 5/4/2008
All Data GMT hour ending 
Status: R =Ratified P=Provisional,P*=As supplied
,,Leeds Centre,,,,,,,,,,,,,,,,,,,,,,,
Date,time,"Carbon monoxide",status,unit,"PM10 particulate matter (Hourly measured)",status,unit,"Nitric oxide",status,unit,"Nitrogen dioxide",status,unit,"Nitrogen oxides as nitrogen dioxide",status,unit,"Ozone",status,unit,"Sulphur dioxide",status,unit
 
01-01-2002,01:00,,,,87,R,ugm-3 (GRAV EQ),,,,,,,,,,,,,,,
01-01-2002,02:00,1.2,R,mgm-3,48,R,ugm-3 (GRAV EQ),,,,,,,,,,6,R,ugm-3,5,R,ugm-3
01-01-2002,03:00,1.4,R,mgm-3,42,R,ugm-3 (GRAV EQ),81,R,ugm-3,71,R,ugm-3,195,R,ugm-3,4,R,ugm-3,8,R,ugm-3
01-01-2002,04:00,1.2,R,mgm-3,27,R,ugm-3 (GRAV EQ),51,R,ugm-3,67,R,ugm-3,145,R,ugm-3,6,R,ugm-3,5,R,ugm-3
01-01-2002,05:00,1.0,R,mgm-3,22,R,ugm-3 (GRAV EQ),30,R,ugm-3,73,R,ugm-3,118,R,ugm-3,6,R,ugm-3,5,R,ugm-3
01-01-2002,06:00,1.0,R,mgm-3,26,R,ugm-3 (GRAV EQ),19,R,ugm-3,71,R,ugm-3,99,R,ugm-3,6,R,ugm-3,5,R,ugm-3
01-01-2002,07:00,1.0,R,mgm-3,26,R,ugm-3 (GRAV EQ),21,R,ugm-3,71,R,ugm-3,103,R,ugm-3,6,R,ugm-3,5,R,ugm-3
01-01-2002,08:00,1.0,R,mgm-3,22,R,ugm-3 (GRAV EQ),25,R,ugm-3,67,R,ugm-3,105,R,ugm-3,4,R,ugm-3,5,R,ugm-3
01-01-2002,09:00,0.8,R,mgm-3,21,R,ugm-3 (GRAV EQ),26,R,ugm-3,65,R,ugm-3,105,R,ugm-3,6,R,ugm-3,5,R,ugm-3
01-01-2002,10:00,1.0,R,mgm-3,20,R,ugm-3 (GRAV EQ),28,R,ugm-3,59,R,ugm-3,101,R,ugm-3,12,R,ugm-3,5,R,ugm-3
01-01-2002,11:00,1.0,R,mgm-3,22,R,ugm-3 (GRAV EQ),49,R,ugm-3,57,R,ugm-3,132,R,ugm-3,10,R,ugm-3,5,R,ugm-3
01-01-2002,12:00,1.3,R,mgm-3,25,R,ugm-3 (GRAV EQ),65,R,ugm-3,67,R,ugm-3,166,R,ugm-3,10,R,ugm-3,5,R,ugm-3
01-01-2002,13:00,1.2,R,mgm-3,13,R,ugm-3 (GRAV EQ),28,R,ugm-3,53,R,ugm-3,96,R,ugm-3,26,R,ugm-3,5,R,ugm-3
01-01-2002,14:00,1.2,R,mgm-3,12,R,ugm-3 (GRAV EQ),16,R,ugm-3,52,R,ugm-3,76,R,ugm-3,34,R,ugm-3,5,R,ugm-3
01-01-2002,15:00,1.0,R,mgm-3,10,R,ugm-3 (GRAV EQ),15,R,ugm-3,48,R,ugm-3,71,R,ugm-3,34,R,ugm-3,5,R,ugm-3
01-01-2002,16:00,1.2,R,mgm-3,12,R,ugm-3 (GRAV EQ),19,R,ugm-3,71,R,ugm-3,99,R,ugm-3,18,R,ugm-3,5,R,ugm-3
01-01-2002,17:00,1.4,R,mgm-3,17,R,ugm-3 (GRAV EQ),38,R,ugm-3,80,R,ugm-3,138,R,ugm-3,8,R,ugm-3,5,R,ugm-3
01-01-2002,18:00,1.7,R,mgm-3,25,R,ugm-3 (GRAV EQ),120,R,ugm-3,94,R,ugm-3,277,R,ugm-3,4,R,ugm-3,5,R,ugm-3
01-01-2002,19:00,2.0,R,mgm-3,34,R,ugm-3 (GRAV EQ),159,R,ugm-3,97,R,ugm-3,340,R,ugm-3,4,R,ugm-3,11,R,ugm-3
01-01-2002,20:00,2.3,R,mgm-3,40,R,ugm-3 (GRAV EQ),229,R,ugm-3,109,R,ugm-3,458,R,ugm-3,4,R,ugm-3,13,R,ugm-3
01-01-2002,21:00,2.9,R,mgm-3,43,R,ugm-3 (GRAV EQ),266,R,ugm-3,109,R,ugm-3,516,R,ugm-3,4,R,ugm-3,16,R,ugm-3
01-01-2002,22:00,3.1,R,mgm-3,49,R,ugm-3 (GRAV EQ),290,R,ugm-3,111,R,ugm-3,554,R,ugm-3,4,R,ugm-3,19,R,ugm-3
01-01-2002,23:00,3.0,R,mgm-3,52,R,ugm-3 (GRAV EQ),306,R,ugm-3,109,R,ugm-3,577,R,ugm-3,4,R,ugm-3,21,R,ugm-3
01-01-2002,24:00,3.6,R,mgm-3,65,R,ugm-3 (GRAV EQ),350,R,ugm-3,132,R,ugm-3,667,R,ugm-3,4,R,ugm-3,27,R,ugm-3
02-01-2002,01:00,3.6,R,mgm-3,56,R,ugm-3 (GRAV EQ),374,R,ugm-3,120,R,ugm-3,691,R,ugm-3,4,R,ugm-3,27,R,ugm-3
02-01-2002,02:00,3.2,R,mgm-3,57,R,ugm-3 (GRAV EQ),,,,,,,,,,6,R,ugm-3,27,R,ugm-3
02-01-2002,03:00,2.9,R,mgm-3,51,R,ugm-3 (GRAV EQ),306,R,ugm-3,117,R,ugm-3,584,R,ugm-3,4,R,ugm-3,27,R,ugm-3
02-01-2002,04:00,2.2,R,mgm-3,46,R,ugm-3 (GRAV EQ),256,R,ugm-3,97,R,ugm-3,489,R,ugm-3,4,R,ugm-3,29,R,ugm-3
02-01-2002,05:00,1.7,R,mgm-3,40,R,ugm-3 (GRAV EQ),233,R,ugm-3,88,R,ugm-3,443,R,ugm-3,4,R,ugm-3,27,R,ugm-3
02-01-2002,06:00,1.7,R,mgm-3,42,R,ugm-3 (GRAV EQ),281,R,ugm-3,97,R,ugm-3,527,R,ugm-3,4,R,ugm-3,21,R,ugm-3
02-01-2002,07:00,1.6,R,mgm-3,56,R,ugm-3 (GRAV EQ),314,R,ugm-3,107,R,ugm-3,586,R,ugm-3,4,R,ugm-3,32,R,ugm-3
02-01-2002,08:00,1.6,R,mgm-3,65,R,ugm-3 (GRAV EQ),325,R,ugm-3,103,R,ugm-3,600,R,ugm-3,4,R,ugm-3,48,R,ugm-3
02-01-2002,09:00,1.7,R,mgm-3,74,R,ugm-3 (GRAV EQ),348,R,ugm-3,111,R,ugm-3,642,R,ugm-3,4,R,ugm-3,45,R,ugm-3
02-01-2002,10:00,1.2,R,mgm-3,57,R,ugm-3 (GRAV EQ),223,R,ugm-3,92,R,ugm-3,432,R,ugm-3,4,R,ugm-3,45,R,ugm-3
02-01-2002,11:00,1.0,R,mgm-3,57,R,ugm-3 (GRAV EQ),194,R,ugm-3,90,R,ugm-3,386,R,ugm-3,4,R,ugm-3,40,R,ugm-3
02-01-2002,12:00,,,,,,,,,,,,,,,,,,,,,
02-01-2002,13:00,,,,,,,,,,,,,,,,,,,,,
02-01-2002,14:00,1.2,R,mgm-3,26,R,ugm-3 (GRAV EQ),84,R,ugm-3,59,R,ugm-3,187,R,ugm-3,6,R,ugm-3,24,R,ugm-3
02-01-2002,15:00,1.2,R,mgm-3,34,R,ugm-3 (GRAV EQ),90,R,ugm-3,63,R,ugm-3,201,R,ugm-3,6,R,ugm-3,61,R,ugm-3
02-01-2002,16:00,1.4,R,mgm-3,39,R,ugm-3 (GRAV EQ),101,R,ugm-3,67,R,ugm-3,222,R,ugm-3,4,R,ugm-3,45,R,ugm-3
02-01-2002,17:00,2.0,R,mgm-3,43,R,ugm-3 (GRAV EQ),135,R,ugm-3,76,R,ugm-3,283,R,ugm-3,4,R,ugm-3,43,R,ugm-3
02-01-2002,18:00,2.4,R,mgm-3,44,R,ugm-3 (GRAV EQ),150,R,ugm-3,73,R,ugm-3,302,R,ugm-3,4,R,ugm-3,43,R,ugm-3
02-01-2002,19:00,1.4,R,mgm-3,35,R,ugm-3 (GRAV EQ),96,R,ugm-3,69,R,ugm-3,216,R,ugm-3,2,R,ugm-3,37,R,ugm-3
02-01-2002,20:00,1.2,R,mgm-3,33,R,ugm-3 (GRAV EQ),60,R,ugm-3,69,R,ugm-3,160,R,ugm-3,2,R,ugm-3,43,R,ugm-3
02-01-2002,21:00,1.2,R,mgm-3,36,R,ugm-3 (GRAV EQ),50,R,ugm-3,71,R,ugm-3,147,R,ugm-3,2,R,ugm-3,37,R,ugm-3
02-01-2002,22:00,1.2,R,mgm-3,22,R,ugm-3 (GRAV EQ),24,R,ugm-3,67,R,ugm-3,103,R,ugm-3,4,R,ugm-3,35,R,ugm-3
02-01-2002,23:00,0.9,R,mgm-3,22,R,ugm-3 (GRAV EQ),18,R,ugm-3,69,R,ugm-3,96,R,ugm-3,6,R,ugm-3,32,R,ugm-3
02-01-2002,24:00,0.8,R,mgm-3,23,R,ugm-3 (GRAV EQ),20,R,ugm-3,71,R,ugm-3,101,R,ugm-3,6,R,ugm-3,24,R,ugm-3
03-01-2002,01:00,0.9,R,mgm-3,22,R,ugm-3 (GRAV EQ),45,R,ugm-3,67,R,ugm-3,136,R,ugm-3,4,R,ugm-3,19,R,ugm-3
03-01-2002,02:00,0.8,R,mgm-3,20,R,ugm-3 (GRAV EQ),,,,,,,,,,4,R,ugm-3,19,R,ugm-3
03-01-2002,03:00,0.9,R,mgm-3,20,R,ugm-3 (GRAV EQ),33,R,ugm-3,67,R,ugm-3,117,R,ugm-3,2,R,ugm-3,21,R,ugm-3
03-01-2002,04:00,0.9,R,mgm-3,18,R,ugm-3 (GRAV EQ),20,R,ugm-3,67,R,ugm-3,97,R,ugm-3,8,R,ugm-3,21,R,ugm-3
03-01-2002,05:00,0.8,R,mgm-3,21,R,ugm-3 (GRAV EQ),16,R,ugm-3,61,R,ugm-3,86,R,ugm-3,6,R,ugm-3,21,R,ugm-3
03-01-2002,06:00,0.8,R,mgm-3,22,R,ugm-3 (GRAV EQ),51,R,ugm-3,67,R,ugm-3,145,R,ugm-3,4,R,ugm-3,21,R,ugm-3
03-01-2002,07:00,0.9,R,mgm-3,30,R,ugm-3 (GRAV EQ),71,R,ugm-3,63,R,ugm-3,172,R,ugm-3,2,R,ugm-3,24,R,ugm-3
03-01-2002,08:00,0.9,R,mgm-3,27,R,ugm-3 (GRAV EQ),78,R,ugm-3,63,R,ugm-3,181,R,ugm-3,2,R,ugm-3,29,R,ugm-3
03-01-2002,09:00,0.9,R,mgm-3,38,R,ugm-3 (GRAV EQ),110,R,ugm-3,73,R,ugm-3,241,R,ugm-3,4,R,ugm-3,43,R,ugm-3
03-01-2002,10:00,0.8,R,mgm-3,30,R,ugm-3 (GRAV EQ),89,R,ugm-3,67,R,ugm-3,202,R,ugm-3,4,R,ugm-3,45,R,ugm-3
03-01-2002,11:00,0.8,R,mgm-3,34,R,ugm-3 (GRAV EQ),78,R,ugm-3,69,R,ugm-3,187,R,ugm-3,4,R,ugm-3,51,R,ugm-3
03-01-2002,12:00,1.0,R,mgm-3,30,R,ugm-3 (GRAV EQ),64,R,ugm-3,63,R,ugm-3,160,R,ugm-3,4,R,ugm-3,40,R,ugm-3
03-01-2002,13:00,1.0,R,mgm-3,25,R,ugm-3 (GRAV EQ),54,R,ugm-3,65,R,ugm-3,147,R,ugm-3,6,R,ugm-3,45,R,ugm-3
03-01-2002,14:00,1.0,R,mgm-3,27,R,ugm-3 (GRAV EQ),43,R,ugm-3,65,R,ugm-3,130,R,ugm-3,8,R,ugm-3,64,R,ugm-3
03-01-2002,15:00,1.0,R,mgm-3,29,R,ugm-3 (GRAV EQ),40,R,ugm-3,63,R,ugm-3,124,R,ugm-3,8,R,ugm-3,56,R,ugm-3
03-01-2002,16:00,1.0,R,mgm-3,27,R,ugm-3 (GRAV EQ),43,R,ugm-3,65,R,ugm-3,130,R,ugm-3,6,R,ugm-3,51,R,ugm-3
03-01-2002,17:00,1.3,R,mgm-3,29,R,ugm-3 (GRAV EQ),50,R,ugm-3,71,R,ugm-3,147,R,ugm-3,2,R,ugm-3,69,R,ugm-3
03-01-2002,18:00,1.3,R,mgm-3,29,R,ugm-3 (GRAV EQ),53,R,ugm-3,67,R,ugm-3,147,R,ugm-3,2,R,ugm-3,80,R,ugm-3
03-01-2002,19:00,0.9,R,mgm-3,30,R,ugm-3 (GRAV EQ),49,R,ugm-3,65,R,ugm-3,139,R,ugm-3,2,R,ugm-3,109,R,ugm-3
03-01-2002,20:00,0.8,R,mgm-3,25,R,ugm-3 (GRAV EQ),39,R,ugm-3,67,R,ugm-3,126,R,ugm-3,2,R,ugm-3,149,R,ugm-3
03-01-2002,21:00,0.7,R,mgm-3,26,R,ugm-3 (GRAV EQ),26,R,ugm-3,73,R,ugm-3,113,R,ugm-3,4,R,ugm-3,125,R,ugm-3
03-01-2002,22:00,0.8,R,mgm-3,26,R,ugm-3 (GRAV EQ),20,R,ugm-3,65,R,ugm-3,96,R,ugm-3,6,R,ugm-3,53,R,ugm-3
03-01-2002,23:00,0.7,R,mgm-3,26,R,ugm-3 (GRAV EQ),23,R,ugm-3,61,R,ugm-3,96,R,ugm-3,6,R,ugm-3,19,R,ugm-3
03-01-2002,24:00,0.7,R,mgm-3,27,R,ugm-3 (GRAV EQ),18,R,ugm-3,67,R,ugm-3,94,R,ugm-3,4,R,ugm-3,29,R,ugm-3
04-01-2002,01:00,0.6,R,mgm-3,30,R,ugm-3 (GRAV EQ),21,R,ugm-3,59,R,ugm-3,92,R,ugm-3,4,R,ugm-3,29,R,ugm-3
04-01-2002,02:00,0.6,R,mgm-3,30,R,ugm-3 (GRAV EQ),,,,,,,,,,2,R,ugm-3,29,R,ugm-3
04-01-2002,03:00,0.6,R,mgm-3,30,R,ugm-3 (GRAV EQ),20,R,ugm-3,63,R,ugm-3,94,R,ugm-3,2,R,ugm-3,27,R,ugm-3
04-01-2002,04:00,0.5,R,mgm-3,29,R,ugm-3 (GRAV EQ),25,R,ugm-3,61,R,ugm-3,99,R,ugm-3,4,R,ugm-3,21,R,ugm-3
04-01-2002,05:00,0.3,R,mgm-3,25,R,ugm-3 (GRAV EQ),20,R,ugm-3,63,R,ugm-3,94,R,ugm-3,4,R,ugm-3,19,R,ugm-3
04-01-2002,06:00,0.5,R,mgm-3,27,R,ugm-3 (GRAV EQ),29,R,ugm-3,57,R,ugm-3,101,R,ugm-3,4,R,ugm-3,21,R,ugm-3
04-01-2002,07:00,0.5,R,mgm-3,29,R,ugm-3 (GRAV EQ),49,R,ugm-3,55,R,ugm-3,130,R,ugm-3,4,R,ugm-3,24,R,ugm-3
04-01-2002,08:00,0.7,R,mgm-3,29,R,ugm-3 (GRAV EQ),58,R,ugm-3,57,R,ugm-3,145,R,ugm-3,2,R,ugm-3,27,R,ugm-3
04-01-2002,09:00,0.9,R,mgm-3,33,R,ugm-3 (GRAV EQ),83,R,ugm-3,57,R,ugm-3,183,R,ugm-3,4,R,ugm-3,24,R,ugm-3
04-01-2002,10:00,1.0,R,mgm-3,35,R,ugm-3 (GRAV EQ),79,R,ugm-3,57,R,ugm-3,178,R,ugm-3,4,R,ugm-3,24,R,ugm-3
04-01-2002,11:00,0.9,R,mgm-3,36,R,ugm-3 (GRAV EQ),71,R,ugm-3,59,R,ugm-3,168,R,ugm-3,8,R,ugm-3,29,R,ugm-3
04-01-2002,12:00,0.9,R,mgm-3,34,R,ugm-3 (GRAV EQ),71,R,ugm-3,55,R,ugm-3,164,R,ugm-3,10,R,ugm-3,24,R,ugm-3
04-01-2002,13:00,0.9,R,mgm-3,40,R,ugm-3 (GRAV EQ),94,R,ugm-3,61,R,ugm-3,204,R,ugm-3,8,R,ugm-3,32,R,ugm-3
04-01-2002,14:00,0.9,R,mgm-3,40,R,ugm-3 (GRAV EQ),81,R,ugm-3,59,R,ugm-3,183,R,ugm-3,8,R,ugm-3,32,R,ugm-3
04-01-2002,15:00,0.9,R,mgm-3,38,R,ugm-3 (GRAV EQ),74,R,ugm-3,61,R,ugm-3,174,R,ugm-3,6,R,ugm-3,27,R,ugm-3
04-01-2002,16:00,1.0,R,mgm-3,43,R,ugm-3 (GRAV EQ),83,R,ugm-3,67,R,ugm-3,193,R,ugm-3,4,R,ugm-3,29,R,ugm-3
04-01-2002,17:00,1.4,R,mgm-3,44,R,ugm-3 (GRAV EQ),124,R,ugm-3,74,R,ugm-3,264,R,ugm-3,4,R,ugm-3,29,R,ugm-3
04-01-2002,18:00,1.5,R,mgm-3,49,R,ugm-3 (GRAV EQ),145,R,ugm-3,80,R,ugm-3,302,R,ugm-3,4,R,ugm-3,37,R,ugm-3
04-01-2002,19:00,1.2,R,mgm-3,51,R,ugm-3 (GRAV EQ),119,R,ugm-3,67,R,ugm-3,248,R,ugm-3,4,R,ugm-3,37,R,ugm-3
04-01-2002,20:00,1.2,R,mgm-3,56,R,ugm-3 (GRAV EQ),131,R,ugm-3,67,R,ugm-3,267,R,ugm-3,4,R,ugm-3,40,R,ugm-3
04-01-2002,21:00,1.2,R,mgm-3,61,R,ugm-3 (GRAV EQ),144,R,ugm-3,74,R,ugm-3,294,R,ugm-3,4,R,ugm-3,59,R,ugm-3
04-01-2002,22:00,1.2,R,mgm-3,57,R,ugm-3 (GRAV EQ),124,R,ugm-3,73,R,ugm-3,262,R,ugm-3,4,R,ugm-3,64,R,ugm-3
04-01-2002,23:00,0.9,R,mgm-3,53,R,ugm-3 (GRAV EQ),126,R,ugm-3,74,R,ugm-3,267,R,ugm-3,4,R,ugm-3,61,R,ugm-3
04-01-2002,24:00,0.9,R,mgm-3,47,R,ugm-3 (GRAV EQ),105,R,ugm-3,67,R,ugm-3,227,R,ugm-3,2,R,ugm-3,59,R,ugm-3
05-01-2002,01:00,0.8,R,mgm-3,49,R,ugm-3 (GRAV EQ),90,R,ugm-3,59,R,ugm-3,197,R,ugm-3,2,R,ugm-3,59,R,ugm-3
05-01-2002,02:00,0.8,R,mgm-3,57,R,ugm-3 (GRAV EQ),,,,,,,,,,2,R,ugm-3,56,R,ugm-3
05-01-2002,03:00,1.0,R,mgm-3,61,R,ugm-3 (GRAV EQ),115,R,ugm-3,67,R,ugm-3,243,R,ugm-3,4,R,ugm-3,59,R,ugm-3
05-01-2002,04:00,1.0,R,mgm-3,65,R,ugm-3 (GRAV EQ),114,R,ugm-3,63,R,ugm-3,237,R,ugm-3,2,R,ugm-3,59,R,ugm-3
05-01-2002,05:00,1.0,R,mgm-3,60,R,ugm-3 (GRAV EQ),113,R,ugm-3,63,R,ugm-3,235,R,ugm-3,2,R,ugm-3,59,R,ugm-3
05-01-2002,06:00,1.0,R,mgm-3,62,R,ugm-3 (GRAV EQ),129,R,ugm-3,63,R,ugm-3,260,R,ugm-3,2,R,ugm-3,56,R,ugm-3
05-01-2002,07:00,1.2,R,mgm-3,56,R,ugm-3 (GRAV EQ),154,R,ugm-3,69,R,ugm-3,304,R,ugm-3,2,R,ugm-3,43,R,ugm-3
05-01-2002,08:00,1.4,R,mgm-3,64,R,ugm-3 (GRAV EQ),191,R,ugm-3,71,R,ugm-3,363,R,ugm-3,4,R,ugm-3,43,R,ugm-3
05-01-2002,09:00,1.6,R,mgm-3,68,R,ugm-3 (GRAV EQ),258,R,ugm-3,74,R,ugm-3,468,R,ugm-3,2,R,ugm-3,40,R,ugm-3
05-01-2002,10:00,1.7,R,mgm-3,69,R,ugm-3 (GRAV EQ),319,R,ugm-3,86,R,ugm-3,573,R,ugm-3,2,R,ugm-3,35,R,ugm-3
05-01-2002,11:00,1.7,R,mgm-3,56,R,ugm-3 (GRAV EQ),341,R,ugm-3,80,R,ugm-3,602,R,ugm-3,2,R,ugm-3,35,R,ugm-3
05-01-2002,12:00,2.7,R,mgm-3,69,R,ugm-3 (GRAV EQ),394,R,ugm-3,96,R,ugm-3,697,R,ugm-3,4,R,ugm-3,35,R,ugm-3
05-01-2002,13:00,2.1,R,mgm-3,53,R,ugm-3 (GRAV EQ),276,R,ugm-3,92,R,ugm-3,514,R,ugm-3,2,R,ugm-3,32,R,ugm-3
05-01-2002,14:00,1.3,R,mgm-3,22,R,ugm-3 (GRAV EQ),109,R,ugm-3,69,R,ugm-3,235,R,ugm-3,2,R,ugm-3,24,R,ugm-3
05-01-2002,15:00,1.0,R,mgm-3,18,R,ugm-3 (GRAV EQ),70,R,ugm-3,61,R,ugm-3,168,R,ugm-3,2,R,ugm-3,19,R,ugm-3
05-01-2002,16:00,1.4,R,mgm-3,27,R,ugm-3 (GRAV EQ),118,R,ugm-3,57,R,ugm-3,237,R,ugm-3,2,R,ugm-3,16,R,ugm-3
05-01-2002,17:00,1.6,R,mgm-3,31,R,ugm-3 (GRAV EQ),135,R,ugm-3,59,R,ugm-3,265,R,ugm-3,2,R,ugm-3,16,R,ugm-3
05-01-2002,18:00,1.0,R,mgm-3,25,R,ugm-3 (GRAV EQ),60,R,ugm-3,65,R,ugm-3,157,R,ugm-3,4,R,ugm-3,16,R,ugm-3
05-01-2002,19:00,0.7,R,mgm-3,22,R,ugm-3 (GRAV EQ),30,R,ugm-3,61,R,ugm-3,107,R,ugm-3,4,R,ugm-3,13,R,ugm-3
05-01-2002,20:00,0.7,R,mgm-3,21,R,ugm-3 (GRAV EQ),23,R,ugm-3,63,R,ugm-3,97,R,ugm-3,6,R,ugm-3,11,R,ugm-3
05-01-2002,21:00,0.6,R,mgm-3,16,R,ugm-3 (GRAV EQ),20,R,ugm-3,59,R,ugm-3,90,R,ugm-3,10,R,ugm-3,11,R,ugm-3
05-01-2002,22:00,0.6,R,mgm-3,10,R,ugm-3 (GRAV EQ),14,R,ugm-3,52,R,ugm-3,73,R,ugm-3,22,R,ugm-3,8,R,ugm-3
05-01-2002,23:00,0.6,R,mgm-3,14,R,ugm-3 (GRAV EQ),16,R,ugm-3,50,R,ugm-3,74,R,ugm-3,22,R,ugm-3,5,R,ugm-3
05-01-2002,24:00,0.6,R,mgm-3,14,R,ugm-3 (GRAV EQ),10,R,ugm-3,48,R,ugm-3,63,R,ugm-3,28,R,ugm-3,5,R,ugm-3
06-01-2002,01:00,0.6,R,mgm-3,16,R,ugm-3 (GRAV EQ),11,R,ugm-3,52,R,ugm-3,69,R,ugm-3,20,R,ugm-3,5,R,ugm-3
06-01-2002,02:00,0.5,R,mgm-3,9,R,ugm-3 (GRAV EQ),,,,,,,,,,26,R,ugm-3,5,R,ugm-3
06-01-2002,03:00,0.6,R,mgm-3,8,R,ugm-3 (GRAV EQ),13,R,ugm-3,50,R,ugm-3,69,R,ugm-3,20,R,ugm-3,5,R,ugm-3
06-01-2002,04:00,0.6,R,mgm-3,7,R,ugm-3 (GRAV EQ),8,R,ugm-3,46,R,ugm-3,57,R,ugm-3,20,R,ugm-3,5,R,ugm-3
06-01-2002,05:00,0.6,R,mgm-3,8,R,ugm-3 (GRAV EQ),4,R,ugm-3,48,R,ugm-3,53,R,ugm-3,20,R,ugm-3,5,R,ugm-3
06-01-2002,06:00,0.5,R,mgm-3,8,R,ugm-3 (GRAV EQ),5,R,ugm-3,40,R,ugm-3,48,R,ugm-3,18,R,ugm-3,5,R,ugm-3
06-01-2002,07:00,0.5,R,mgm-3,12,R,ugm-3 (GRAV EQ),10,R,ugm-3,53,R,ugm-3,69,R,ugm-3,10,R,ugm-3,5,R,ugm-3
06-01-2002,08:00,0.5,R,mgm-3,9,R,ugm-3 (GRAV EQ),10,R,ugm-3,46,R,ugm-3,61,R,ugm-3,16,R,ugm-3,5,R,ugm-3
06-01-2002,09:00,0.5,R,mgm-3,9,R,ugm-3 (GRAV EQ),11,R,ugm-3,50,R,ugm-3,67,R,ugm-3,12,R,ugm-3,5,R,ugm-3
06-01-2002,10:00,0.5,R,mgm-3,8,R,ugm-3 (GRAV EQ),21,R,ugm-3,50,R,ugm-3,82,R,ugm-3,10,R,ugm-3,5,R,ugm-3
06-01-2002,11:00,0.6,R,mgm-3,13,R,ugm-3 (GRAV EQ),50,R,ugm-3,50,R,ugm-3,126,R,ugm-3,6,R,ugm-3,5,R,ugm-3
06-01-2002,12:00,0.9,R,mgm-3,14,R,ugm-3 (GRAV EQ),79,R,ugm-3,52,R,ugm-3,172,R,ugm-3,6,R,ugm-3,5,R,ugm-3
06-01-2002,13:00,1.3,R,mgm-3,30,R,ugm-3 (GRAV EQ),126,R,ugm-3,65,R,ugm-3,258,R,ugm-3,4,R,ugm-3,8,R,ugm-3
06-01-2002,14:00,1.7,R,mgm-3,43,R,ugm-3 (GRAV EQ),170,R,ugm-3,73,R,ugm-3,332,R,ugm-3,4,R,ugm-3,13,R,ugm-3
06-01-2002,15:00,1.6,R,mgm-3,44,R,ugm-3 (GRAV EQ),191,R,ugm-3,74,R,ugm-3,367,R,ugm-3,4,R,ugm-3,19,R,ugm-3
06-01-2002,16:00,1.5,R,mgm-3,39,R,ugm-3 (GRAV EQ),168,R,ugm-3,65,R,ugm-3,321,R,ugm-3,2,R,ugm-3,19,R,ugm-3
06-01-2002,17:00,1.6,R,mgm-3,62,R,ugm-3 (GRAV EQ),166,R,ugm-3,63,R,ugm-3,317,R,ugm-3,2,R,ugm-3,24,R,ugm-3
06-01-2002,18:00,1.9,R,mgm-3,75,R,ugm-3 (GRAV EQ),184,R,ugm-3,69,R,ugm-3,350,R,ugm-3,2,R,ugm-3,37,R,ugm-3
06-01-2002,19:00,1.9,R,mgm-3,85,R,ugm-3 (GRAV EQ),218,R,ugm-3,71,R,ugm-3,403,R,ugm-3,4,R,ugm-3,48,R,ugm-3
06-01-2002,20:00,2.4,R,mgm-3,87,R,ugm-3 (GRAV EQ),278,R,ugm-3,78,R,ugm-3,502,R,ugm-3,2,R,ugm-3,43,R,ugm-3
06-01-2002,21:00,2.9,R,mgm-3,83,R,ugm-3 (GRAV EQ),346,R,ugm-3,88,R,ugm-3,617,R,ugm-3,4,R,ugm-3,40,R,ugm-3
06-01-2002,22:00,1.6,R,mgm-3,39,R,ugm-3 (GRAV EQ),179,R,ugm-3,69,R,ugm-3,342,R,ugm-3,2,R,ugm-3,27,R,ugm-3
06-01-2002,23:00,1.9,R,mgm-3,46,R,ugm-3 (GRAV EQ),218,R,ugm-3,69,R,ugm-3,401,R,ugm-3,2,R,ugm-3,24,R,ugm-3
06-01-2002,24:00,0.8,R,mgm-3,20,R,ugm-3 (GRAV EQ),48,R,ugm-3,63,R,ugm-3,136,R,ugm-3,2,R,ugm-3,19,R,ugm-3
07-01-2002,01:00,0.6,R,mgm-3,16,R,ugm-3 (GRAV EQ),15,R,ugm-3,63,R,ugm-3,86,R,ugm-3,10,R,ugm-3,13,R,ugm-3
07-01-2002,02:00,0.5,R,mgm-3,17,R,ugm-3 (GRAV EQ),,,,,,,,,,24,R,ugm-3,11,R,ugm-3
07-01-2002,03:00,0.5,R,mgm-3,17,R,ugm-3 (GRAV EQ),9,R,ugm-3,57,R,ugm-3,71,R,ugm-3,16,R,ugm-3,13,R,ugm-3
07-01-2002,04:00,0.5,R,mgm-3,18,R,ugm-3 (GRAV EQ),10,R,ugm-3,67,R,ugm-3,82,R,ugm-3,6,R,ugm-3,13,R,ugm-3
07-01-2002,05:00,0.6,R,mgm-3,31,R,ugm-3 (GRAV EQ),64,R,ugm-3,65,R,ugm-3,162,R,ugm-3,2,R,ugm-3,16,R,ugm-3
07-01-2002,06:00,1.0,R,mgm-3,51,R,ugm-3 (GRAV EQ),158,R,ugm-3,74,R,ugm-3,315,R,ugm-3,4,R,ugm-3,21,R,ugm-3
07-01-2002,07:00,1.3,R,mgm-3,57,R,ugm-3 (GRAV EQ),231,R,ugm-3,84,R,ugm-3,437,R,ugm-3,2,R,ugm-3,29,R,ugm-3
07-01-2002,08:00,1.7,R,mgm-3,57,R,ugm-3 (GRAV EQ),239,R,ugm-3,76,R,ugm-3,441,R,ugm-3,2,R,ugm-3,37,R,ugm-3
07-01-2002,09:00,2.2,R,mgm-3,92,R,ugm-3 (GRAV EQ),411,R,ugm-3,107,R,ugm-3,735,R,ugm-3,4,R,ugm-3,56,R,ugm-3
07-01-2002,10:00,2.3,R,mgm-3,107,R,ugm-3 (GRAV EQ),535,R,ugm-3,128,R,ugm-3,945,R,ugm-3,4,R,ugm-3,67,R,ugm-3
07-01-2002,11:00,1.6,R,mgm-3,83,R,ugm-3 (GRAV EQ),413,R,ugm-3,101,R,ugm-3,732,R,ugm-3,2,R,ugm-3,69,R,ugm-3
07-01-2002,12:00,1.7,R,mgm-3,86,R,ugm-3 (GRAV EQ),421,R,ugm-3,107,R,ugm-3,751,R,ugm-3,2,R,ugm-3,74,R,ugm-3
07-01-2002,13:00,2.4,R,mgm-3,104,R,ugm-3 (GRAV EQ),533,R,ugm-3,126,R,ugm-3,940,R,ugm-3,4,R,ugm-3,72,R,ugm-3
07-01-2002,14:00,2.1,R,mgm-3,121,R,ugm-3 (GRAV EQ),503,R,ugm-3,134,R,ugm-3,902,R,ugm-3,4,R,ugm-3,72,R,ugm-3
07-01-2002,15:00,2.6,R,mgm-3,121,R,ugm-3 (GRAV EQ),564,R,ugm-3,134,R,ugm-3,995,R,ugm-3,4,R,ugm-3,74,R,ugm-3
07-01-2002,16:00,3.7,R,mgm-3,142,R,ugm-3 (GRAV EQ),671,R,ugm-3,149,R,ugm-3,1175,R,ugm-3,4,R,ugm-3,77,R,ugm-3
07-01-2002,17:00,5.6,R,mgm-3,133,R,ugm-3 (GRAV EQ),688,R,ugm-3,145,R,ugm-3,1196,R,ugm-3,4,R,ugm-3,72,R,ugm-3
07-01-2002,18:00,6.3,R,mgm-3,146,R,ugm-3 (GRAV EQ),783,R,ugm-3,176,R,ugm-3,1371,R,ugm-3,6,R,ugm-3,80,R,ugm-3
07-01-2002,19:00,4.3,R,mgm-3,134,R,ugm-3 (GRAV EQ),649,R,ugm-3,151,R,ugm-3,1142,R,ugm-3,4,R,ugm-3,85,R,ugm-3
07-01-2002,20:00,3.0,R,mgm-3,137,R,ugm-3 (GRAV EQ),593,R,ugm-3,143,R,ugm-3,1049,R,ugm-3,2,R,ugm-3,93,R,ugm-3
07-01-2002,21:00,2.9,R,mgm-3,143,R,ugm-3 (GRAV EQ),535,R,ugm-3,136,R,ugm-3,953,R,ugm-3,4,R,ugm-3,109,R,ugm-3
07-01-2002,22:00,2.9,R,mgm-3,156,R,ugm-3 (GRAV EQ),554,R,ugm-3,134,R,ugm-3,980,R,ugm-3,4,R,ugm-3,98,R,ugm-3
07-01-2002,23:00,2.9,R,mgm-3,165,R,ugm-3 (GRAV EQ),568,R,ugm-3,143,R,ugm-3,1010,R,ugm-3,4,R,ugm-3,98,R,ugm-3
07-01-2002,24:00,2.4,R,mgm-3,170,R,ugm-3 (GRAV EQ),554,R,ugm-3,143,R,ugm-3,989,R,ugm-3,4,R,ugm-3,98,R,ugm-3
08-01-2002,01:00,2.2,R,mgm-3,170,R,ugm-3 (GRAV EQ),476,R,ugm-3,130,R,ugm-3,858,R,ugm-3,4,R,ugm-3,114,R,ugm-3
08-01-2002,02:00,2.1,R,mgm-3,169,R,ugm-3 (GRAV EQ),,,,,,,,,,6,R,ugm-3,133,R,ugm-3
08-01-2002,03:00,2.1,R,mgm-3,164,R,ugm-3 (GRAV EQ),378,R,ugm-3,111,R,ugm-3,688,R,ugm-3,4,R,ugm-3,133,R,ugm-3
08-01-2002,04:00,2.0,R,mgm-3,165,R,ugm-3 (GRAV EQ),380,R,ugm-3,120,R,ugm-3,701,R,ugm-3,6,R,ugm-3,128,R,ugm-3
08-01-2002,05:00,1.7,R,mgm-3,134,R,ugm-3 (GRAV EQ),336,R,ugm-3,113,R,ugm-3,626,R,ugm-3,4,R,ugm-3,120,R,ugm-3
08-01-2002,06:00,1.5,R,mgm-3,82,R,ugm-3 (GRAV EQ),259,R,ugm-3,78,R,ugm-3,474,R,ugm-3,2,R,ugm-3,96,R,ugm-3
08-01-2002,07:00,1.5,R,mgm-3,74,R,ugm-3 (GRAV EQ),293,R,ugm-3,73,R,ugm-3,520,R,ugm-3,2,R,ugm-3,96,R,ugm-3
08-01-2002,08:00,1.7,R,mgm-3,87,R,ugm-3 (GRAV EQ),316,R,ugm-3,86,R,ugm-3,569,R,ugm-3,2,R,ugm-3,88,R,ugm-3
08-01-2002,09:00,1.7,R,mgm-3,83,R,ugm-3 (GRAV EQ),329,R,ugm-3,86,R,ugm-3,588,R,ugm-3,2,R,ugm-3,85,R,ugm-3
08-01-2002,10:00,1.7,R,mgm-3,82,R,ugm-3 (GRAV EQ),361,R,ugm-3,94,R,ugm-3,646,R,ugm-3,4,R,ugm-3,82,R,ugm-3
08-01-2002,11:00,1.0,R,mgm-3,51,R,ugm-3 (GRAV EQ),236,R,ugm-3,86,R,ugm-3,447,R,ugm-3,2,R,ugm-3,74,R,ugm-3
08-01-2002,12:00,0.9,R,mgm-3,35,R,ugm-3 (GRAV EQ),204,R,ugm-3,82,R,ugm-3,393,R,ugm-3,2,R,ugm-3,59,R,ugm-3
08-01-2002,13:00,0.9,R,mgm-3,61,R,ugm-3 (GRAV EQ),206,R,ugm-3,80,R,ugm-3,395,R,ugm-3,2,R,ugm-3,67,R,ugm-3
08-01-2002,14:00,0.8,R,mgm-3,59,R,ugm-3 (GRAV EQ),176,R,ugm-3,80,R,ugm-3,350,R,ugm-3,2,R,ugm-3,72,R,ugm-3
08-01-2002,15:00,0.9,R,mgm-3,69,R,ugm-3 (GRAV EQ),203,R,ugm-3,76,R,ugm-3,386,R,ugm-3,2,R,ugm-3,80,R,ugm-3
08-01-2002,16:00,1.2,R,mgm-3,69,R,ugm-3 (GRAV EQ),246,R,ugm-3,82,R,ugm-3,458,R,ugm-3,2,R,ugm-3,82,R,ugm-3
08-01-2002,17:00,1.2,R,mgm-3,51,R,ugm-3 (GRAV EQ),179,R,ugm-3,69,R,ugm-3,342,R,ugm-3,2,R,ugm-3,77,R,ugm-3
08-01-2002,18:00,1.0,R,mgm-3,48,R,ugm-3 (GRAV EQ),150,R,ugm-3,67,R,ugm-3,296,R,ugm-3,2,R,ugm-3,64,R,ugm-3
08-01-2002,19:00,0.9,R,mgm-3,60,R,ugm-3 (GRAV EQ),155,R,ugm-3,55,R,ugm-3,292,R,ugm-3,2,R,ugm-3,64,R,ugm-3
08-01-2002,20:00,0.7,R,mgm-3,53,R,ugm-3 (GRAV EQ),146,R,ugm-3,53,R,ugm-3,277,R,ugm-3,2,R,ugm-3,61,R,ugm-3
08-01-2002,21:00,0.7,R,mgm-3,39,R,ugm-3 (GRAV EQ),113,R,ugm-3,57,R,ugm-3,229,R,ugm-3,2,R,ugm-3,56,R,ugm-3
08-01-2002,22:00,0.7,R,mgm-3,33,R,ugm-3 (GRAV EQ),100,R,ugm-3,59,R,ugm-3,212,R,ugm-3,2,R,ugm-3,82,R,ugm-3
08-01-2002,23:00,0.6,R,mgm-3,26,R,ugm-3 (GRAV EQ),70,R,ugm-3,55,R,ugm-3,162,R,ugm-3,2,R,ugm-3,69,R,ugm-3
08-01-2002,24:00,0.5,R,mgm-3,14,R,ugm-3 (GRAV EQ),31,R,ugm-3,55,R,ugm-3,103,R,ugm-3,6,R,ugm-3,69,R,ugm-3
09-01-2002,01:00,0.3,R,mgm-3,16,R,ugm-3 (GRAV EQ),20,R,ugm-3,59,R,ugm-3,90,R,ugm-3,8,R,ugm-3,37,R,ugm-3
09-01-2002,02:00,0.2,R,mgm-3,18,R,ugm-3 (GRAV EQ),,,,,,,,,,8,R,ugm-3,37,R,ugm-3
09-01-2002,03:00,0.2,R,mgm-3,20,R,ugm-3 (GRAV EQ),14,R,ugm-3,61,R,ugm-3,82,R,ugm-3,8,R,ugm-3,37,R,ugm-3
09-01-2002,04:00,0.2,R,mgm-3,20,R,ugm-3 (GRAV EQ),18,R,ugm-3,55,R,ugm-3,82,R,ugm-3,8,R,ugm-3,35,R,ugm-3
09-01-2002,05:00,0.2,R,mgm-3,17,R,ugm-3 (GRAV EQ),13,R,ugm-3,48,R,ugm-3,67,R,ugm-3,12,R,ugm-3,27,R,ugm-3
09-01-2002,06:00,0.3,R,mgm-3,23,R,ugm-3 (GRAV EQ),16,R,ugm-3,50,R,ugm-3,74,R,ugm-3,12,R,ugm-3,21,R,ugm-3
09-01-2002,07:00,0.5,R,mgm-3,22,R,ugm-3 (GRAV EQ),29,R,ugm-3,46,R,ugm-3,90,R,ugm-3,10,R,ugm-3,19,R,ugm-3
09-01-2002,08:00,0.6,R,mgm-3,33,R,ugm-3 (GRAV EQ),58,R,ugm-3,46,R,ugm-3,134,R,ugm-3,4,R,ugm-3,19,R,ugm-3
09-01-2002,09:00,0.7,R,mgm-3,44,R,ugm-3 (GRAV EQ),84,R,ugm-3,55,R,ugm-3,183,R,ugm-3,2,R,ugm-3,21,R,ugm-3
09-01-2002,10:00,0.8,R,mgm-3,44,R,ugm-3 (GRAV EQ),79,R,ugm-3,59,R,ugm-3,180,R,ugm-3,4,R,ugm-3,27,R,ugm-3
09-01-2002,11:00,0.8,R,mgm-3,61,R,ugm-3 (GRAV EQ),105,R,ugm-3,65,R,ugm-3,225,R,ugm-3,4,R,ugm-3,29,R,ugm-3
09-01-2002,12:00,0.9,R,mgm-3,60,R,ugm-3 (GRAV EQ),110,R,ugm-3,63,R,ugm-3,231,R,ugm-3,6,R,ugm-3,43,R,ugm-3
09-01-2002,13:00,0.9,R,mgm-3,61,R,ugm-3 (GRAV EQ),115,R,ugm-3,55,R,ugm-3,231,R,ugm-3,6,R,ugm-3,48,R,ugm-3
09-01-2002,14:00,1.0,R,mgm-3,74,R,ugm-3 (GRAV EQ),141,R,ugm-3,76,R,ugm-3,292,R,ugm-3,4,R,ugm-3,72,R,ugm-3
09-01-2002,15:00,0.9,R,mgm-3,70,R,ugm-3 (GRAV EQ),125,R,ugm-3,57,R,ugm-3,248,R,ugm-3,4,R,ugm-3,72,R,ugm-3
09-01-2002,16:00,0.9,R,mgm-3,59,R,ugm-3 (GRAV EQ),126,R,ugm-3,59,R,ugm-3,252,R,ugm-3,4,R,ugm-3,61,R,ugm-3
09-01-2002,17:00,1.0,R,mgm-3,60,R,ugm-3 (GRAV EQ),146,R,ugm-3,57,R,ugm-3,281,R,ugm-3,4,R,ugm-3,53,R,ugm-3
09-01-2002,18:00,1.7,R,mgm-3,65,R,ugm-3 (GRAV EQ),171,R,ugm-3,61,R,ugm-3,323,R,ugm-3,4,R,ugm-3,64,R,ugm-3
09-01-2002,19:00,1.3,R,mgm-3,64,R,ugm-3 (GRAV EQ),163,R,ugm-3,52,R,ugm-3,300,R,ugm-3,4,R,ugm-3,64,R,ugm-3
09-01-2002,20:00,0.8,R,mgm-3,56,R,ugm-3 (GRAV EQ),136,R,ugm-3,53,R,ugm-3,262,R,ugm-3,2,R,ugm-3,51,R,ugm-3
09-01-2002,21:00,0.8,R,mgm-3,53,R,ugm-3 (GRAV EQ),105,R,ugm-3,52,R,ugm-3,212,R,ugm-3,2,R,ugm-3,45,R,ugm-3
09-01-2002,22:00,0.6,R,mgm-3,44,R,ugm-3 (GRAV EQ),80,R,ugm-3,52,R,ugm-3,174,R,ugm-3,2,R,ugm-3,43,R,ugm-3
09-01-2002,23:00,0.5,R,mgm-3,36,R,ugm-3 (GRAV EQ),38,R,ugm-3,57,R,ugm-3,115,R,ugm-3,2,R,ugm-3,40,R,ugm-3
09-01-2002,24:00,0.5,R,mgm-3,34,R,ugm-3 (GRAV EQ),43,R,ugm-3,57,R,ugm-3,122,R,ugm-3,2,R,ugm-3,32,R,ugm-3
10-01-2002,01:00,0.3,R,mgm-3,35,R,ugm-3 (GRAV EQ),28,R,ugm-3,63,R,ugm-3,105,R,ugm-3,2,R,ugm-3,35,R,ugm-3
10-01-2002,02:00,0.2,R,mgm-3,34,R,ugm-3 (GRAV EQ),,,,,,,,,,2,R,ugm-3,27,R,ugm-3
10-01-2002,03:00,0.3,R,mgm-3,39,R,ugm-3 (GRAV EQ),23,R,ugm-3,57,R,ugm-3,92,R,ugm-3,2,R,ugm-3,32,R,ugm-3
10-01-2002,04:00,0.6,R,mgm-3,44,R,ugm-3 (GRAV EQ),43,R,ugm-3,55,R,ugm-3,120,R,ugm-3,2,R,ugm-3,59,R,ugm-3
10-01-2002,05:00,0.5,R,mgm-3,42,R,ugm-3 (GRAV EQ),41,R,ugm-3,53,R,ugm-3,117,R,ugm-3,2,R,ugm-3,45,R,ugm-3
10-01-2002,06:00,0.6,R,mgm-3,42,R,ugm-3 (GRAV EQ),44,R,ugm-3,52,R,ugm-3,118,R,ugm-3,2,R,ugm-3,53,R,ugm-3
10-01-2002,07:00,0.6,R,mgm-3,55,R,ugm-3 (GRAV EQ),55,R,ugm-3,50,R,ugm-3,134,R,ugm-3,2,R,ugm-3,77,R,ugm-3
10-01-2002,08:00,0.7,R,mgm-3,69,R,ugm-3 (GRAV EQ),99,R,ugm-3,53,R,ugm-3,204,R,ugm-3,4,R,ugm-3,125,R,ugm-3
10-01-2002,09:00,0.7,R,mgm-3,70,R,ugm-3 (GRAV EQ),101,R,ugm-3,53,R,ugm-3,208,R,ugm-3,4,R,ugm-3,109,R,ugm-3
10-01-2002,10:00,0.7,R,mgm-3,55,R,ugm-3 (GRAV EQ),83,R,ugm-3,48,R,ugm-3,174,R,ugm-3,2,R,ugm-3,80,R,ugm-3
10-01-2002,11:00,0.7,R,mgm-3,52,R,ugm-3 (GRAV EQ),110,R,ugm-3,55,R,ugm-3,223,R,ugm-3,4,R,ugm-3,88,R,ugm-3